N1PSJ Weather Reports


time (UTC)temp
F
wind
direction
speed
knots
gust
knots
rain 1hr
in
rain 24hr
in
rain mn
in
humidity
%
barometer
mb
20260506215822 60 196 1.7 7.8 0.00 0.00 0.00 98 1006.2
20260506215256 60 201 1.7 7.0 0.00 0.00 0.00 98 1006.2
20260506214754 60 227 1.7 5.2 0.00 0.00 0.00 98 1006.2
20260506214256 60 184 3.5 6.1 0.00 0.00 0.00 98 1006.2
20260506213818 60 254 2.6 6.1 0.00 0.00 0.00 98 1006.2
20260506213306 60 180 0.9 6.1 0.00 0.00 0.00 98 1006.2
20260506212808 60 218 1.7 7.8 0.00 0.00 0.00 98 1006.2
20260506212311 60 222 2.6 7.8 0.00 0.00 0.00 98 1006.2
20260506211811 60 175 1.7 7.0 0.00 0.00 0.00 98 1006.2
20260506211258 60 185 2.6 7.0 0.00 0.00 0.00 98 1006.2
20260506210836 60 202 0.9 5.2 0.00 0.00 0.00 98 1006.4
20260506210311 60 231 0.9 6.1 0.00 0.00 0.00 98 1006.4
20260506205822 60 232 2.6 6.1 0.00 0.00 0.00 98 1006.4
20260506205300 60 165 0.9 8.7 0.00 0.00 0.00 98 1006.7
20260506204759 60 181 0.0 5.2 0.00 0.00 0.00 97 1006.7
20260506204320 60 220 2.6 7.0 0.00 0.00 0.00 97 1006.7
20260506203807 60 222 2.6 7.0 0.00 0.00 0.00 97 1006.7
20260506203258 60 207 2.6 6.1 0.00 0.00 0.00 97 1006.7
20260506202758 60 239 1.7 8.7 0.00 0.00 0.00 97 1006.7
20260506202325 60 200 1.7 8.7 0.00 0.00 0.00 96 1006.7
20260506201813 60 215 1.7 6.1 0.00 0.00 0.00 96 1006.7
20260506201253 60 239 1.7 5.2 0.00 0.00 0.00 96 1006.7
20260506200759 60 207 1.7 5.2 0.00 0.00 0.00 96 1006.8
20260506200253 60 214 2.6 7.0 0.00 0.00 0.00 96 1006.8
20260506195827 60 216 2.6 7.8 0.00 0.00 0.00 96 1006.8
20260506195327 60 187 2.6 7.8 0.00 0.00 0.00 96 1006.9
20260506194759 60 228 3.5 8.7 0.00 0.00 0.00 96 1006.9
20260506194302 60 205 3.5 8.7 0.00 0.00 0.00 96 1006.9
20260506193804 60 188 2.6 9.6 0.00 0.00 0.00 95 1007.1
20260506193308 60 220 4.3 9.6 0.00 0.00 0.00 95 1007.1
20260506192758 60 205 2.6 8.7 0.00 0.00 0.00 95 1007.1
20260506192259 60 237 3.5 8.7 0.00 0.00 0.00 95 1007.2
20260506191802 60 187 3.5 8.7 0.00 0.00 0.00 95 1007.2
20260506191305 60 208 1.7 7.8 0.00 0.00 0.00 95 1007.2
20260506190753 61 171 2.6 7.8 0.00 0.00 0.00 95 1007.2
20260506190300 60 207 1.7 7.0 0.00 0.00 0.00 95 1007.2
20260506185820 60 178 3.5 11.3 0.00 0.00 0.00 94 1007.2
20260506185306 60 224 3.5 13.0 0.00 0.00 0.00 94 1007.5
20260506184804 60 160 5.2 13.0 0.00 0.00 0.00 94 1007.5
20260506184310 60 259 2.6 11.3 0.00 0.00 0.00 94 1007.5
20260506183801 60 197 4.3 11.3 0.00 0.00 0.00 94 1007.7
20260506183311 60 187 3.5 10.4 0.00 0.00 0.00 94 1007.7
20260506182814 61 216 4.3 9.6 0.00 0.00 0.00 94 1007.7
20260506182317 61 177 3.5 10.4 0.00 0.00 0.00 93 1007.7
20260506181820 61 206 2.6 10.4 0.00 0.00 0.00 93 1007.7
20260506181307 61 193 4.3 7.8 0.00 0.00 0.00 93 1007.7
20260506180810 61 201 1.7 8.7 0.00 0.00 0.00 93 1007.7
20260506180329 61 225 5.2 8.7 0.00 0.00 0.00 92 1007.7
20260506175804 61 168 4.3 7.8 0.00 0.00 0.00 91 1007.7
20260506175310 61 160 1.7 6.1 0.00 0.00 0.00 91 1007.7
20260506174817 61 197 1.7 7.0 0.00 0.00 0.00 90 1007.7
20260506174308 62 202 1.7 7.0 0.00 0.00 0.00 90 1007.7
20260506173756 62 180 2.6 7.0 0.00 0.00 0.00 89 1008.3
20260506173320 62 178 1.7 7.8 0.00 0.00 0.00 89 1008.3
20260506172753 62 202 1.7 8.7 0.00 0.00 0.00 87 1008.3
20260506172320 62 212 2.6 8.7 0.00 0.00 0.00 87 1008.6
20260506171822 63 219 1.7 7.8 0.00 0.00 0.00 86 1008.6
20260506171304 63 164 2.6 10.4 0.00 0.00 0.00 84 1008.6
20260506170807 63 223 3.5 10.4 0.00 0.00 0.00 84 1008.7
20260506170314 63 237 3.5 10.4 0.00 0.00 0.00 83 1008.7
20260506165820 63 200 4.3 11.3 0.00 0.00 0.00 81 1008.7
20260506165310 64 182 5.2 9.6 0.00 0.00 0.00 80 1008.8
20260506164759 64 176 5.2 10.4 0.00 0.00 0.00 79 1008.8
20260506164323 64 260 4.3 10.4 0.00 0.00 0.00 79 1008.8
20260506163821 64 208 2.6 11.3 0.00 0.00 0.00 78 1008.6
20260506163339 65 198 6.1 11.3 0.00 0.00 0.00 77 1008.6
20260506162809 65 212 5.2 13.9 0.00 0.00 0.00 77 1008.6
20260506162256 65 258 5.2 13.9 0.00 0.00 0.00 77 1008.6
20260506161812 65 249 5.2 12.2 0.00 0.00 0.00 76 1008.6
20260506161303 65 185 5.2 12.2 0.00 0.00 0.00 74 1008.6
20260506160807 66 178 5.2 12.2 0.00 0.00 0.00 73 1008.8
20260506160312 66 198 3.5 12.2 0.00 0.00 0.00 72 1008.8
20260506155812 66 193 2.6 8.7 0.00 0.00 0.00 72 1008.8
20260506155300 66 200 2.6 14.8 0.00 0.00 0.00 73 1008.9
20260506154838 66 204 6.1 14.8 0.00 0.00 0.00 72 1008.9
20260506154311 67 202 5.2 11.3 0.00 0.00 0.00 72 1008.9
20260506153753 67 214 6.1 11.3 0.00 0.00 0.00 71 1008.8
20260506153317 67 210 5.2 11.3 0.00 0.00 0.00 70 1008.8
20260506152822 67 210 5.2 11.3 0.00 0.00 0.00 70 1008.8
20260506152311 67 191 5.2 10.4 0.00 0.00 0.00 70 1008.8
20260506151809 67 173 2.6 12.2 0.00 0.00 0.00 70 1008.8
20260506151307 67 191 6.1 12.2 0.00 0.00 0.00 70 1008.8
20260506150817 67 199 2.6 8.7 0.00 0.00 0.00 71 1008.8
20260506150304 67 260 4.3 13.0 0.00 0.00 0.00 70 1008.8
20260506145759 67 199 6.1 13.0 0.00 0.00 0.00 70 1008.8
20260506145259 67 175 5.2 8.7 0.00 0.00 0.00 71 1009.2
20260506144757 67 241 0.9 8.7 0.00 0.00 0.00 72 1009.2
20260506144314 67 189 3.5 8.7 0.00 0.00 0.00 72 1009.2
20260506143813 67 189 3.5 11.3 0.00 0.00 0.00 72 1009.2
20260506143303 67 218 4.3 11.3 0.00 0.00 0.00 72 1009.2
20260506142806 67 210 2.6 7.8 0.00 0.00 0.00 73 1009.2
20260506142313 66 259 3.5 7.0 0.00 0.00 0.00 74 1009.2
20260506141817 66 245 3.5 8.7 0.00 0.00 0.00 74 1009.2
20260506141304 66 179 3.5 9.6 0.00 0.00 0.00 75 1009.2
20260506140806 65 195 5.2 9.6 0.00 0.00 0.00 75 1009.3
20260506140327 65 182 5.2 9.6 0.00 0.00 0.00 76 1009.3
20260506135802 65 195 4.3 7.8 0.00 0.00 0.00 76 1009.3
20260506135307 65 206 3.5 9.6 0.00 0.00 0.00 76 1009.3
20260506134758 65 210 3.5 10.4 0.00 0.00 0.00 77 1009.3
20260506134259 65 171 4.3 7.8 0.00 0.00 0.00 77 1009.3
20260506133819 64 197 4.3 11.3 0.00 0.00 0.00 78 1009.2
20260506133301 64 225 4.3 11.3 0.00 0.00 0.00 78 1009.2
20260506132758 64 193 4.3 9.6 0.00 0.00 0.00 78 1009.2
20260506132258 64 208 4.3 9.6 0.00 0.00 0.00 79 1009.3
20260506131822 63 193 3.5 7.8 0.00 0.00 0.00 80 1009.3
20260506131312 63 204 3.5 7.0 0.00 0.00 0.00 81 1009.3
20260506130758 63 209 1.7 6.1 0.00 0.00 0.00 81 1009.4
20260506130256 63 228 0.9 7.0 0.00 0.00 0.00 82 1009.4
20260506125759 63 195 2.6 7.8 0.00 0.00 0.00 82 1009.4
20260506125307 62 189 1.7 7.8 0.00 0.00 0.00 82 1009.8
20260506124759 62 206 2.6 9.6 0.00 0.00 0.00 83 1009.8
20260506124320 62 209 2.6 9.6 0.00 0.00 0.00 83 1009.8
20260506123805 62 177 2.6 7.8 0.00 0.00 0.00 83 1009.8
20260506123255 62 229 2.6 8.7 0.00 0.00 0.00 83 1009.8
20260506122818 62 176 2.6 7.8 0.00 0.00 0.00 83 1009.8
20260506122342 62 200 0.9 10.4 0.00 0.00 0.00 84 1009.8
20260506121818 61 185 5.2 10.4 0.00 0.00 0.00 83 1009.8
20260506121336 62 178 4.3 9.6 0.00 0.00 0.00 83 1009.8
20260506120809 62 193 4.3 12.2 0.00 0.00 0.00 84 1009.8
20260506120308 61 252 4.3 12.2 0.00 0.00 0.00 84 1009.8
20260506115754 61 193 3.5 7.0 0.00 0.00 0.00 85 1009.8
20260506115319 61 266 1.7 10.4 0.00 0.00 0.00 85 1009.8
20260506114841 61 247 4.3 10.4 0.00 0.00 0.00 85 1009.8
20260506114320 60 268 5.2 8.7 0.00 0.00 0.00 86 1009.8
20260506113840 60 212 3.5 8.7 0.00 0.00 0.00 86 1009.8
20260506113313 60 226 3.5 6.1 0.00 0.00 0.00 86 1009.8
20260506112759 60 233 2.6 7.0 0.00 0.00 0.00 87 1009.8
20260506112258 60 185 3.5 8.7 0.00 0.00 0.00 87 1010.1
20260506111757 59 218 5.2 8.7 0.00 0.00 0.00 87 1010.1
20260506111257 59 210 3.5 9.6 0.00 0.00 0.00 87 1010.1
20260506110759 59 178 2.6 7.8 0.00 0.00 0.00 88 1010.0
20260506110305 59 205 3.5 7.8 0.00 0.00 0.00 88 1010.0
20260506105800 59 203 3.5 6.1 0.00 0.00 0.00 88 1010.0
20260506105301 59 208 1.7 6.1 0.00 0.00 0.00 89 1009.9
20260506104805 59 191 0.9 7.0 0.00 0.00 0.00 89 1009.9
20260506104306 59 187 2.6 7.0 0.00 0.00 0.00 89 1009.9
20260506103825 59 258 1.7 6.1 0.00 0.00 0.00 89 1009.8
20260506103310 58 207 3.5 7.0 0.00 0.00 0.00 89 1009.8
20260506102801 58 177 1.7 7.0 0.00 0.00 0.00 89 1009.8
20260506102259 58 191 0.0 5.2 0.00 0.00 0.00 89 1009.8
20260506101803 58 188 0.0 8.7 0.00 0.00 0.00 89 1009.8
20260506101323 58 194 3.5 8.7 0.00 0.00 0.00 89 1009.8
20260506100757 58 231 0.9 7.0 0.00 0.00 0.00 89 1009.8
20260506100303 58 176 3.5 7.0 0.00 0.00 0.00 89 1009.8
20260506095815 58 202 1.7 5.2 0.00 0.00 0.00 89 1009.8
20260506095318 58 243 1.7 5.2 0.00 0.00 0.00 88 1009.8
20260506094808 58 201 2.6 5.2 0.00 0.00 0.00 88 1009.8
20260506094309 58 225 1.7 6.1 0.00 0.00 0.00 88 1009.8
20260506093813 58 206 1.7 6.1 0.00 0.00 0.00 88 1009.7
20260506093316 58 183 3.5 6.1 0.00 0.00 0.00 88 1009.7
20260506092806 58 206 1.7 7.8 0.00 0.00 0.00 87 1009.7
20260506092319 59 198 2.6 7.8 0.00 0.00 0.00 87 1009.8
20260506091810 59 226 1.7 9.6 0.00 0.00 0.00 87 1009.8
20260506091307 59 189 4.3 9.6 0.00 0.00 0.00 87 1009.8
20260506090810 59 182 2.6 7.8 0.00 0.00 0.00 87 1009.8
20260506090316 59 230 1.7 7.8 0.00 0.00 0.00 86 1009.8
20260506085841 59 182 3.5 9.6 0.00 0.00 0.00 86 1009.8
20260506085310 59 217 4.3 9.6 0.00 0.00 0.00 86 1009.8
20260506084811 59 191 3.5 7.8 0.00 0.00 0.00 86 1009.8
20260506084308 59 209 4.3 7.8 0.00 0.00 0.00 86 1009.8
20260506083832 59 182 2.6 6.1 0.00 0.00 0.00 85 1009.8
20260506083314 59 204 2.6 8.7 0.00 0.00 0.00 85 1009.8
20260506082818 59 188 4.3 7.8 0.00 0.00 0.00 85 1009.8
20260506082305 59 207 3.5 7.8 0.00 0.00 0.00 85 1009.8
20260506081802 59 234 3.5 6.1 0.00 0.00 0.00 84 1009.8
20260506081302 59 178 2.6 7.8 0.00 0.00 0.00 84 1009.8
20260506080803 60 198 2.6 8.7 0.00 0.00 0.00 84 1009.9
20260506080256 60 231 2.6 8.7 0.00 0.00 0.00 84 1009.9
20260506073309 60 221 2.6 6.1 0.00 0.00 0.00 83 1009.8
20260506072810 60 202 0.9 8.7 0.00 0.00 0.00 82 1009.8
20260506072301 60 220 4.3 8.7 0.00 0.00 0.00 82 1009.8
20260506071802 60 206 1.7 8.7 0.00 0.00 0.00 82 1009.8
20260506071301 60 233 1.7 7.8 0.00 0.00 0.00 81 1009.8
20260506070803 60 198 2.6 7.0 0.00 0.00 0.00 81 1009.8
20260506070257 61 220 2.6 10.4 0.00 0.00 0.00 81 1009.8
20260506062300 61 179 0.9 6.1 0.00 0.00 0.00 80 1009.7
20260506061801 61 230 0.9 6.1 0.00 0.00 0.00 80 1009.7
20260506061256 61 168 0.9 5.2 0.00 0.00 0.00 79 1009.7
20260506060759 61 203 1.7 7.0 0.00 0.00 0.00 79 1009.6
20260506060317 61 202 3.5 7.0 0.00 0.00 0.00 79 1009.6
20260506051317 63 215 2.6 7.0 0.00 0.00 0.00 75 1009.9
20260506050820 63 222 1.7 7.0 0.00 0.00 0.00 75 1010.0
20260506050307 63 254 2.6 7.0 0.00 0.00 0.00 74 1010.0
20260506044813 63 200 1.7 7.8 0.00 0.00 0.00 72 1010.2
20260506044314 64 239 0.9 5.2 0.00 0.00 0.00 71 1010.2
20260506043818 64 269 0.9 7.0 0.00 0.00 0.00 70 1010.1
20260506043310 64 199 1.7 9.6 0.00 0.00 0.00 70 1010.1
20260506042834 64 211 2.6 9.6 0.00 0.00 0.00 69 1010.1
20260506042310 64 211 0.9 5.2 0.00 0.00 0.00 69 1010.2
20260506041823 64 198 0.9 5.2 0.00 0.00 0.00 68 1010.2
20260506041304 64 216 1.7 5.2 0.00 0.00 0.00 68 1010.2
20260506040814 64 235 0.0 7.8 0.00 0.00 0.00 68 1010.2
20260506040314 65 212 3.5 7.8 0.00 0.00 0.00 67 1010.2
20260506035809 65 201 0.9 4.3 0.00 0.00 0.00 67 1010.2
20260506035308 65 224 0.9 8.7 0.00 0.00 0.00 67 1010.1
20260506034806 65 196 3.5 8.7 0.00 0.00 0.00 67 1010.1
20260506034328 65 186 0.9 7.0 0.00 0.00 0.00 67 1010.1
20260506033806 65 231 2.6 8.7 0.00 0.00 0.00 66 1010.2
20260506033301 65 193 4.3 8.7 0.00 0.00 0.00 66 1010.2
20260506032804 65 181 2.6 7.0 0.00 0.00 0.00 66 1010.2
20260506032306 65 196 2.6 5.2 0.00 0.00 0.00 66 1010.1
20260506031805 65 236 1.7 6.1 0.00 0.00 0.00 66 1010.1
20260506031258 65 198 2.6 6.1 0.00 0.00 0.00 66 1010.1
20260506030758 65 223 2.6 7.8 0.00 0.00 0.00 66 1009.9
20260506030309 65 204 2.6 7.8 0.00 0.00 0.00 66 1009.9
20260506025815 65 181 2.6 7.8 0.00 0.00 0.00 66 1009.9
20260506025308 65 206 2.6 7.8 0.00 0.00 0.00 67 1009.9
20260506024756 65 232 2.6 7.0 0.00 0.00 0.00 66 1009.9
20260506024256 65 189 2.6 5.2 0.00 0.00 0.00 66 1009.9
20260506023820 65 232 1.7 6.1 0.00 0.00 0.00 66 1009.9
20260506023320 65 221 2.6 7.0 0.00 0.00 0.00 65 1009.9
20260506022812 65 210 2.6 8.7 0.00 0.00 0.00 65 1009.9
20260506022256 65 233 0.9 8.7 0.00 0.00 0.00 65 1010.0
20260506021759 65 219 1.7 6.1 0.00 0.00 0.00 65 1010.0
20260506021300 65 200 2.6 7.0 0.00 0.00 0.00 65 1010.0
20260506020757 65 151 2.6 7.0 0.00 0.00 0.00 65 1009.9
20260506020256 65 202 0.9 4.3 0.00 0.00 0.00 64 1009.9
20260506015803 65 204 0.9 6.1 0.00 0.00 0.00 64 1009.9
20260506015301 65 248 0.9 7.0 0.00 0.00 0.00 64 1009.8
20260506014759 65 184 4.3 9.6 0.00 0.00 0.00 63 1009.8
20260506014305 66 193 3.5 9.6 0.00 0.00 0.00 63 1009.8
20260506013822 66 203 1.7 7.0 0.00 0.00 0.00 63 1009.7
20260506013310 66 218 2.6 8.7 0.00 0.00 0.00 62 1009.7
20260506012812 66 222 1.7 8.7 0.00 0.00 0.00 62 1009.7
20260506012319 66 177 1.7 5.2 0.00 0.00 0.00 62 1009.3
20260506011822 66 189 2.6 7.8 0.00 0.00 0.00 61 1009.3
20260506011253 66 212 1.7 6.1 0.00 0.00 0.00 61 1009.3
20260506010759 66 202 2.6 6.1 0.00 0.00 0.00 61 1009.3
20260506010305 66 212 0.0 6.1 0.00 0.00 0.00 61 1009.3
20260506005803 66 214 1.7 6.1 0.00 0.00 0.00 61 1009.3
20260506005306 67 220 0.0 7.0 0.00 0.00 0.00 60 1009.2
20260506004807 67 220 2.6 8.7 0.00 0.00 0.00 60 1009.2
20260506004305 67 197 1.7 8.7 0.00 0.00 0.00 60 1009.2
20260506003835 67 205 0.0 6.1 0.00 0.00 0.00 60 1008.8
20260506003304 67 201 2.6 9.6 0.00 0.00 0.00 59 1008.8
20260506002805 67 220 2.6 7.0 0.00 0.00 0.00 59 1008.8
20260506002311 67 226 3.5 7.8 0.00 0.00 0.00 59 1008.6
20260506001816 68 215 3.5 7.8 0.00 0.00 0.00 59 1008.6
20260506001307 68 219 0.9 7.8 0.00 0.00 0.00 59 1008.6
20260506000810 68 186 2.6 9.6 0.00 0.00 0.00 59 1008.3
20260506000335 68 179 3.5 9.6 0.00 0.00 0.00 58 1008.3
20260505235756 68 234 3.5 9.6 0.00 0.00 0.00 58 1008.3
20260505235257 69 174 4.3 11.3 0.00 0.00 0.00 58 1008.3
20260505234818 69 224 5.2 11.3 0.00 0.00 0.00 58 1008.3
20260505234314 69 245 2.6 7.0 0.00 0.00 0.00 58 1008.3
20260505233830 69 209 2.6 12.2 0.00 0.00 0.00 57 1008.0
20260505233308 69 185 3.5 12.2 0.00 0.00 0.00 57 1008.0
20260505232811 69 221 2.6 10.4 0.00 0.00 0.00 57 1008.0
20260505232317 70 171 3.5 10.4 0.00 0.00 0.00 57 1007.8
20260505231805 70 188 4.3 11.3 0.00 0.00 0.00 56 1007.8
20260505231325 70 241 5.2 12.2 0.00 0.00 0.00 56 1007.8
20260505230845 70 172 4.3 12.2 0.00 0.00 0.00 56 1007.7
20260505230309 70 189 6.1 11.3 0.00 0.00 0.00 56 1007.7
20260505225814 70 209 4.3 11.3 0.00 0.00 0.00 55 1007.7
20260505225316 71 180 6.1 12.2 0.00 0.00 0.00 55 1007.3
20260505224823 71 198 6.1 12.2 0.00 0.00 0.00 55 1007.3
20260505224308 71 169 6.1 15.6 0.00 0.00 0.00 54 1007.3
20260505223808 72 167 7.0 15.6 0.00 0.00 0.00 53 1006.9
20260505223316 72 157 4.3 11.3 0.00 0.00 0.00 53 1006.9
20260505222756 72 214 6.1 14.8 0.00 0.00 0.00 53 1006.9
20260505222258 73 175 5.2 13.0 0.00 0.00 0.00 52 1007.3
20260505221801 73 193 6.1 13.0 0.00 0.00 0.00 52 1007.3
20260505221259 73 204 4.3 10.4 0.00 0.00 0.00 52 1007.3
20260505220820 73 231 5.2 10.4 0.00 0.00 0.00 53 1007.3
20260505220256 73 226 4.3 11.3 0.00 0.00 0.00 52 1007.3